Time,TemperatureF,DewpointF,PressureIn,WindDirection,WindDirectionDegrees,WindSpeedMPH,WindSpeedGustMPH,Humidity,HourlyPrecipIn,Conditions,Clouds,dailyrainin,SoftwareType,DateUTC
2013-03-13 00:09:00,57.7,57.0,29.90,NNE,20,7.0,-999.0,97,-99.99,,,0.00,weatherlink.com 1.10,2013-03-13 04:09:00,
2013-03-13 00:24:00,57.4,56.0,29.91,NNW,342,5.0,-999.0,95,-99.99,,,0.00,weatherlink.com 1.10,2013-03-13 04:24:00,
2013-03-13 00:39:00,57.3,55.0,29.92,NNE,20,12.0,-999.0,92,-99.99,,,0.00,weatherlink.com 1.10,2013-03-13 04:39:00,
2013-03-13 00:54:00,56.8,53.0,29.92,NNW,329,8.0,-999.0,88,-99.99,,,0.00,weatherlink.com 1.10,2013-03-13 04:54:00,
2013-03-13 01:09:00,56.3,52.0,29.92,NNW,327,6.0,-999.0,85,-99.99,,,0.00,weatherlink.com 1.10,2013-03-13 05:09:00,
2013-03-13 01:24:00,55.5,49.0,29.93,NNE,15,12.0,-999.0,78,-99.99,,,0.00,weatherlink.com 1.10,2013-03-13 05:24:00,
2013-03-13 01:39:00,55.3,48.0,29.93,NNW,336,10.0,-999.0,75,-99.99,,,0.00,weatherlink.com 1.10,2013-03-13 05:39:00,
2013-03-13 01:54:00,54.7,44.0,29.94,NNW,346,9.0,-999.0,68,-99.99,,,0.00,weatherlink.com 1.10,2013-03-13 05:54:00,
2013-03-13 02:09:00,53.9,43.0,29.94,NNW,346,8.0,-999.0,66,-99.99,,,0.00,weatherlink.com 1.10,2013-03-13 06:09:00,
2013-03-13 02:24:00,53.4,41.0,29.95,North,5,7.0,-999.0,64,-99.99,,,0.00,weatherlink.com 1.10,2013-03-13 06:24:00,
2013-03-13 02:39:00,52.7,41.0,29.95,NW,307,5.0,-999.0,64,-99.99,,,0.00,weatherlink.com 1.10,2013-03-13 06:39:00,
2013-03-13 02:54:00,51.8,41.0,29.95,NNW,342,7.0,-999.0,66,-99.99,,,0.00,weatherlink.com 1.10,2013-03-13 06:54:00,
2013-03-13 03:09:00,51.2,41.0,29.95,NNW,338,7.0,-999.0,67,-99.99,,,0.00,weatherlink.com 1.10,2013-03-13 07:09:00,
2013-03-13 03:24:00,50.7,40.0,29.95,North,360,5.0,-999.0,67,-99.99,,,0.00,weatherlink.com 1.10,2013-03-13 07:24:00,
2013-03-13 03:39:00,50.0,40.0,29.95,North,5,8.0,-999.0,69,-99.99,,,0.00,weatherlink.com 1.10,2013-03-13 07:39:00,
2013-03-13 03:54:00,49.4,40.0,29.95,NNW,348,7.0,-999.0,69,-99.99,,,0.00,weatherlink.com 1.10,2013-03-13 07:54:00,
2013-03-13 04:09:00,49.1,39.0,29.96,North,5,10.0,-999.0,69,-99.99,,,0.00,weatherlink.com 1.10,2013-03-13 08:09:00,
2013-03-13 04:24:00,48.9,39.0,29.96,NW,319,9.0,-999.0,69,-99.99,,,0.00,weatherlink.com 1.10,2013-03-13 08:24:00,
2013-03-13 04:39:00,48.6,39.0,29.96,North,350,6.0,-999.0,69,-99.99,,,0.00,weatherlink.com 1.10,2013-03-13 08:39:00,
2013-03-13 04:55:00,48.4,39.0,29.97,NW,319,11.0,-999.0,69,-99.99,,,0.00,weatherlink.com 1.10,2013-03-13 08:55:00,
2013-03-13 05:10:00,48.2,38.0,29.98,NW,315,8.0,-999.0,69,-99.99,,,0.00,weatherlink.com 1.10,2013-03-13 09:10:00,
2013-03-13 05:25:00,47.8,38.0,29.98,North,355,9.0,-999.0,69,-99.99,,,0.00,weatherlink.com 1.10,2013-03-13 09:25:00,
2013-03-13 05:40:00,47.3,38.0,29.99,North,351,10.0,-999.0,70,-99.99,,,0.00,weatherlink.com 1.10,2013-03-13 09:40:00,
2013-03-13 05:55:00,46.9,38.0,30.00,NNW,346,10.0,-999.0,72,-99.99,,,0.00,weatherlink.com 1.10,2013-03-13 09:55:00,
2013-03-13 06:10:00,46.7,38.0,30.00,NNE,15,9.0,-999.0,73,-99.99,,,0.00,weatherlink.com 1.10,2013-03-13 10:10:00,
2013-03-13 06:25:00,46.7,39.0,30.01,NNW,334,6.0,-999.0,74,-99.99,,,0.00,weatherlink.com 1.10,2013-03-13 10:25:00,
2013-03-13 06:40:00,47.1,39.0,30.02,NNW,337,5.0,-999.0,74,-99.99,,,0.00,weatherlink.com 1.10,2013-03-13 10:40:00,
2013-03-13 06:55:00,47.2,39.0,30.02,North,355,10.0,-999.0,74,-99.99,,,0.00,weatherlink.com 1.10,2013-03-13 10:55:00,
2013-03-13 07:10:00,47.1,39.0,30.03,NNW,344,11.0,-999.0,74,-99.99,,,0.00,weatherlink.com 1.10,2013-03-13 11:10:00,
2013-03-13 07:25:00,47.2,39.0,30.04,North,355,9.0,-999.0,74,-99.99,,,0.00,weatherlink.com 1.10,2013-03-13 11:25:00,
2013-03-13 07:40:00,47.3,40.0,30.04,NNW,345,6.0,-999.0,75,-99.99,,,0.00,weatherlink.com 1.10,2013-03-13 11:40:00,
2013-03-13 07:55:00,47.4,40.0,30.05,NNE,16,6.0,-999.0,75,-99.99,,,0.00,weatherlink.com 1.10,2013-03-13 11:55:00,
2013-03-13 08:10:00,47.6,40.0,30.05,NW,312,5.0,-999.0,75,-99.99,,,0.00,weatherlink.com 1.10,2013-03-13 12:10:00,
2013-03-13 08:25:00,48.0,40.0,30.05,North,9,7.0,-999.0,75,-99.99,,,0.00,weatherlink.com 1.10,2013-03-13 12:25:00,
2013-03-13 08:40:00,48.0,40.0,30.06,NNW,344,7.0,-999.0,75,-99.99,,,0.00,weatherlink.com 1.10,2013-03-13 12:40:00,
2013-03-13 08:55:00,47.9,41.0,30.07,North,360,8.0,-999.0,76,-99.99,,,0.00,weatherlink.com 1.10,2013-03-13 12:55:00,
2013-03-13 09:10:00,47.9,41.0,30.07,NNW,340,7.0,-999.0,76,-99.99,,,0.00,weatherlink.com 1.10,2013-03-13 13:10:00,
2013-03-13 09:25:00,48.1,41.0,30.08,North,355,5.0,-999.0,76,-99.99,,,0.00,weatherlink.com 1.10,2013-03-13 13:25:00,
2013-03-13 09:40:00,48.6,41.0,30.08,North,5,5.0,-999.0,76,-99.99,,,0.00,weatherlink.com 1.10,2013-03-13 13:40:00,
2013-03-13 09:55:00,49.2,42.0,30.08,NNW,348,14.0,-999.0,76,-99.99,,,0.00,weatherlink.com 1.10,2013-03-13 13:55:00,
2013-03-13 10:10:00,50.7,43.0,30.08,North,355,6.0,-999.0,74,-99.99,,,0.00,weatherlink.com 1.10,2013-03-13 14:10:00,
2013-03-13 10:25:00,51.8,42.0,30.08,North,360,3.0,-999.0,69,-99.99,,,0.00,weatherlink.com 1.10,2013-03-13 14:25:00,
2013-03-13 10:40:00,52.6,41.0,30.08,North,5,8.0,-999.0,66,-99.99,,,0.00,weatherlink.com 1.10,2013-03-13 14:40:00,
2013-03-13 10:55:00,52.7,40.0,30.09,North,5,8.0,-999.0,63,-99.99,,,0.00,weatherlink.com 1.10,2013-03-13 14:55:00,
2013-03-13 11:10:00,53.2,39.0,30.09,North,5,7.0,-999.0,60,-99.99,,,0.00,weatherlink.com 1.10,2013-03-13 15:10:00,
2013-03-13 11:25:00,54.5,40.0,30.08,NW,304,5.0,-999.0,59,-99.99,,,0.00,weatherlink.com 1.10,2013-03-13 15:25:00,
2013-03-13 11:40:00,55.5,38.0,30.08,NNW,329,6.0,-999.0,53,-99.99,,,0.00,weatherlink.com 1.10,2013-03-13 15:40:00,
2013-03-13 11:55:00,55.7,37.0,30.07,WNW,294,6.0,-999.0,50,-99.99,,,0.00,weatherlink.com 1.10,2013-03-13 15:55:00,
2013-03-13 12:10:00,56.7,38.0,30.07,NW,314,0.0,-999.0,50,-99.99,,,0.00,weatherlink.com 1.10,2013-03-13 16:10:00,
2013-03-13 12:25:00,56.4,34.0,30.06,NNW,340,4.0,-999.0,43,-99.99,,,0.00,weatherlink.com 1.10,2013-03-13 16:25:00,
2013-03-13 12:40:00,57.5,36.0,30.06,WSW,256,7.0,-999.0,44,-99.99,,,0.00,weatherlink.com 1.10,2013-03-13 16:40:00,
2013-03-13 12:55:00,58.1,35.0,30.06,NW,311,8.0,-999.0,42,-99.99,,,0.00,weatherlink.com 1.10,2013-03-13 16:55:00,
2013-03-13 13:11:00,57.5,33.0,30.05,NNW,327,9.0,-999.0,39,-99.99,,,0.00,weatherlink.com 1.10,2013-03-13 17:11:00,
2013-03-13 13:26:00,58.6,36.0,30.04,WNW,297,8.0,-999.0,43,-99.99,,,0.00,weatherlink.com 1.10,2013-03-13 17:26:00,
2013-03-13 13:56:00,59.2,34.0,30.02,North,355,1.0,-999.0,39,-99.99,,,0.00,weatherlink.com 1.10,2013-03-13 17:56:00,
2013-03-13 14:11:00,56.6,44.0,30.02,SSW,206,7.0,-999.0,64,-99.99,,,0.00,weatherlink.com 1.10,2013-03-13 18:11:00,
2013-03-13 14:26:00,55.9,45.0,30.01,SSW,199,11.0,-999.0,66,-99.99,,,0.00,weatherlink.com 1.10,2013-03-13 18:26:00,
2013-03-13 14:41:00,57.6,43.0,30.00,SSW,207,8.0,-999.0,58,-99.99,,,0.00,weatherlink.com 1.10,2013-03-13 18:41:00,
2013-03-13 14:56:00,56.5,42.0,30.00,West,259,6.0,-999.0,59,-99.99,,,0.00,weatherlink.com 1.10,2013-03-13 18:56:00,
2013-03-13 15:11:00,58.6,33.0,29.99,WNW,288,4.0,-999.0,38,-99.99,,,0.00,weatherlink.com 1.10,2013-03-13 19:11:00,
2013-03-13 15:26:00,59.5,32.0,29.99,West,267,10.0,-999.0,35,-99.99,,,0.00,weatherlink.com 1.10,2013-03-13 19:26:00,
2013-03-13 16:26:00,55.1,43.0,29.98,SSW,212,15.0,-999.0,64,-99.99,,,0.00,weatherlink.com 1.10,2013-03-13 20:26:00,
2013-03-13 16:56:00,54.2,44.0,29.98,SSW,209,14.0,-999.0,69,-99.99,,,0.00,weatherlink.com 1.10,2013-03-13 20:56:00,
2013-03-13 17:41:00,54.2,44.0,29.99,SW,225,17.0,-999.0,69,-99.99,,,0.00,weatherlink.com 1.10,2013-03-13 21:41:00,
2013-03-13 18:11:00,54.1,45.0,30.00,SW,222,13.0,-999.0,71,-99.99,,,0.00,weatherlink.com 1.10,2013-03-13 22:11:00,
2013-03-13 19:26:00,53.8,46.0,30.01,SW,233,14.0,-999.0,76,-99.99,,,0.00,weatherlink.com 1.10,2013-03-13 23:26:00,
2013-03-13 19:56:00,53.7,47.0,30.01,SW,234,12.0,-999.0,77,-99.99,,,0.00,weatherlink.com 1.10,2013-03-13 23:56:00,
2013-03-13 20:26:00,54.0,47.0,30.02,WSW,240,8.0,-999.0,78,-99.99,,,0.00,weatherlink.com 1.10,2013-03-14 00:26:00,
2013-03-13 20:41:00,53.9,48.0,30.02,WSW,242,10.0,-999.0,79,-99.99,,,0.00,weatherlink.com 1.10,2013-03-14 00:41:00,
2013-03-13 20:56:00,53.9,48.0,30.03,WSW,242,12.0,-999.0,80,-99.99,,,0.00,weatherlink.com 1.10,2013-03-14 00:56:00,
2013-03-13 21:26:00,53.2,48.0,30.04,West,265,5.0,-999.0,81,-99.99,,,0.00,weatherlink.com 1.10,2013-03-14 01:26:00,
2013-03-13 21:41:00,52.2,47.0,30.04,NW,307,3.0,-999.0,82,-99.99,,,0.00,weatherlink.com 1.10,2013-03-14 01:41:00,
2013-03-13 21:56:00,51.5,46.0,30.05,NW,308,4.0,-999.0,81,-99.99,,,0.00,weatherlink.com 1.10,2013-03-14 01:56:00,
2013-03-13 22:11:00,51.7,44.0,30.05,NNE,13,3.0,-999.0,76,-99.99,,,0.00,weatherlink.com 1.10,2013-03-14 02:11:00,
2013-03-13 22:56:00,50.7,35.0,30.07,WNW,299,10.0,-999.0,56,-99.99,,,0.00,weatherlink.com 1.10,2013-03-14 02:56:00,
2013-03-13 23:11:00,49.7,36.0,30.07,NNW,346,12.0,-999.0,59,-99.99,,,0.00,weatherlink.com 1.10,2013-03-14 03:11:00,
2013-03-13 23:41:00,48.7,34.0,30.08,NNE,22,16.0,-999.0,57,-99.99,,,0.00,weatherlink.com 1.10,2013-03-14 03:41:00,
2013-03-13 23:56:00,48.1,33.0,30.09,North,11,12.0,-999.0,56,-99.99,,,0.00,weatherlink.com 1.10,2013-03-14 03:56:00,